Main page
METAR-TAF:

METAR-TAF

Airports :

Gonabad, Iran

latitude: 34-22-51N, longitude: 58-38-23E, elevation: 1100 m

Current weather observation

The report was made 27 minutes ago, at 16:00 UTC
Wind 6 kt from the South
Temperature 8°C
Humidity 36%
Pressure 1020 hPa
Visibility 10 km or more
no clouds below 1500 m and no cumulonimbus

METAR: OIMD 181600Z 19006KT CAVOK 08/M06 Q1020

Time: 19:57 (16:27 UTC)


TAF: missing

Weather observations and forecasts of more than 4000 airports (METAR and TAF reports).

The available stations are represented by yellow and red dots on the map.

Hover mouse over dot to see the name of the station.

Then click to see weather observations and forecasts.

To change the map : click on the green buttons with a black cross to zoom in, on the green button with a dash to zoom out, or on the green arrows for adjacent maps.


METAR-TAF: